FW1686 Weather Reports


time (UTC)temp
C
wind
direction
speed
KPH
gust
KPH
rain 1hr
cm
rain 24hr
cm
rain mn
cm
humidity
%
barometer
mb
20260504030052 9 182 4.8 8.0 0.00 0.00 0.00 58 1013.5
20260504024502 9 199 3.2 6.4 0.00 0.00 0.00 57 1013.6
20260504023013 10 190 3.2 8.0 0.00 0.00 0.00 56 1013.8
20260504021504 10 214 4.8 8.0 0.00 0.00 0.00 52 1013.6
20260504020019 10 197 1.6 9.7 0.00 0.00 0.00 54 1013.9
20260504014526 10 219 3.2 6.4 0.00 0.00 0.00 55 1013.9
20260504013034 10 227 1.6 6.4 0.00 0.00 0.00 52 1013.5
20260504011541 11 228 3.2 8.0 0.00 0.00 0.00 50 1013.4
20260504010051 11 235 3.2 8.0 0.00 0.00 0.00 50 1013.4
20260504004554 11 232 3.2 8.0 0.00 0.00 0.00 49 1013.5
20260504003009 11 227 3.2 9.7 0.00 0.00 0.00 48 1013.4
20260504001510 12 254 3.2 11.3 0.00 0.00 0.00 47 1013.6
20260504000022 12 240 6.4 14.5 0.00 0.00 0.00 46 1013.5
20260503234533 12 219 9.7 16.1 0.00 0.00 0.00 44 1013.6
20260503233041 13 242 11.3 22.5 0.00 0.00 0.00 44 1013.7
20260503231522 13 225 6.4 19.3 0.00 0.00 0.00 44 1013.7
20260503230029 13 198 6.4 22.5 0.00 0.00 0.00 44 1013.7
20260503224512 13 227 8.0 19.3 0.00 0.00 0.00 43 1013.7
20260503223012 13 238 12.9 20.9 0.00 0.00 0.00 41 1013.9
20260503221520 13 201 12.9 27.4 0.00 0.00 0.00 42 1013.9
20260503220022 14 242 6.4 22.5 0.00 0.00 0.00 41 1013.9
20260503214526 15 285 6.4 24.1 0.00 0.00 0.00 40 1014.0
20260503213034 15 215 9.7 19.3 0.00 0.00 0.00 41 1013.8
20260503211544 15 249 9.7 22.5 0.00 0.00 0.00 39 1013.8
20260503210048 15 231 14.5 22.5 0.00 0.00 0.00 40 1013.9
20260503204559 13 202 14.5 27.4 0.00 0.00 0.00 42 1014.1
20260503203012 13 265 6.4 22.5 0.00 0.00 0.00 43 1014.2
20260503201514 13 278 12.9 27.4 0.00 0.00 0.00 41 1014.4
20260503200021 13 243 9.7 22.5 0.00 0.00 0.00 40 1014.5
20260503194506 15 234 12.9 27.4 0.00 0.00 0.00 41 1014.7
20260503193026 13 286 6.4 24.1 0.00 0.00 0.00 41 1014.9
20260503191516 14 325 12.9 33.8 0.00 0.00 0.00 40 1015.3
20260503190018 14 284 12.9 29.0 0.00 0.00 0.00 44 1015.5
20260503184525 13 301 8.0 24.1 0.00 0.00 0.00 43 1015.8
20260503183024 14 193 12.9 25.7 0.00 0.00 0.00 44 1016.0
20260503181530 13 258 11.3 25.7 0.00 0.00 0.00 42 1016.1
20260503180041 13 238 12.9 27.4 0.00 0.00 0.00 43 1016.3
20260503174533 12 221 4.8 25.7 0.00 0.00 0.00 44 1016.6
20260503173035 12 261 11.3 27.4 0.00 0.00 0.00 44 1016.7
20260503171540 12 228 9.7 27.4 0.00 0.00 0.00 43 1017.0
20260503081521 1 250 3.2 8.0 0.00 0.00 0.00 85 1016.8
20260503071524 1 259 1.6 6.4 0.00 0.00 0.00 85 1016.5
20260503060113 1 258 1.6 9.7 0.00 0.00 0.00 86 1016.7
20260503054601 1 267 1.6 4.8 0.00 0.00 0.00 86 1016.7
20260503053009 1 265 1.6 6.4 0.00 0.00 0.00 86 1016.8
20260503051515 1 261 1.6 6.4 0.00 0.00 0.00 86 1016.9
20260503050022 1 259 1.6 4.8 0.00 0.00 0.00 86 1016.9
20260503044532 1 257 0.0 0.0 0.00 0.00 0.00 85 1017.0
20260503043035 1 258 1.6 4.8 0.00 0.00 0.00 85 1017.1
20260503041537 1 258 3.2 6.4 0.00 0.00 0.00 85 1017.1
20260503040042 1 265 1.6 6.4 0.00 0.00 0.00 84 1017.1
20260503034551 1 279 1.6 4.8 0.00 0.00 0.00 84 1017.1
20260503033057 1 279 1.6 4.8 0.00 0.00 0.00 83 1017.2
20260503031558 2 280 0.0 0.0 0.00 0.00 0.00 83 1017.1